User: anonymous   Login
Location: Winthrop
(48.4780°N, 120.1850°W)
Time: 01:58:06
(UTC-08:00)
Language:

XW-2A - Orbit

View from above orbital plane
View from above orbital plane
View from above satellite
View from above satellite

Ground track
Ground track

The orbit data is extracted from the following two-line orbital elements,

1 40903U 15049E   22343.72616630  .00048867  00000-0  51976-3 0  9994
2 40903  97.1548  43.3156 0007164 175.7291 337.9202 15.63857394406540
Epoch (UTC): 09 December 2022 17:25:40
Eccentricity: 0.0007164
inclination: 97.1548°
perigee height: 371 km
apogee height: 381 km
right ascension of ascending node: 43.3156°
argument of perigee: 175.7291°
revolutions per day: 15.63857394
mean anomaly at epoch: 337.9202°
orbit number at epoch: 40654

The dashed part of the orbit path shows where the satellite is in the earth's shadow,  

DLR